GFSSE_con_mucape_162.txt.gz
CAPE
437 753 1221 855 905 1117 1368 1548 1118 807 1076 1651 1788 1366 1519 1186 1097 1153 1847 2117 2253 1971 1952 2453 2856 3069 2271 2152 2317 2287 2501 2922 2807 2368 2160 2294 2506 2798 2522 2194 2286 2151 2621
339 726 1244 980 864 1304 1353 1462 796 1004 1681 1600 1490 1521 1727 1139 1014 959 1700 2021 1896 1976 2027 2281 2506 2428 2412 2256 2364 2173 2328 2672 2779 2467 2459 2499 2593 2560 2080 2449 2395 2290 2333
198 704 816 1514 891 1224 1524 1025 732 528 709 782 1244 1783 1512 1526 1380 1674 1857 1753 1608 1836 1956 2245 2326 2181 2177 2239 2261 2256 2242 2334 2592 2473 2985 1189 1491 1676 1842 2187 2533 2538 2407
51 532 386 1625 1157 862 765 626 520 827 1222 925 1718 1528 1467 1452 1568 1578 1695 1864 1891 1740 2171 2151 2318 2444 2316 2016 1789 1800 1778 1518 1712 2066 2215 696 1394 1902 1443 1503 1521 1296 1334
161 284 556 1301 1217 779 906 691 80 266 1151 1637 1691 1494 1431 1455 1563 1725 1674 1628 1953 2531 2343 1879 1657 1882 1605 1399 1182 1070 1231 1647 2242 2299 1741 985 1353 2103 1914 1901 1599 1395 1675
117 68 1123 1049 840 831 827 524 1119 1306 1298 1651 1320 1569 1461 1636 1816 1880 1943 2014 2082 2138 2141 2083 2084 1936 1684 1465 1278 1302 1705 2203 2588 2114 1392 1666 1312 1258 1071 1113 1167 1112 975
65 95 235 782 670 731 933 515 911 1188 1261 1433 1326 1588 1522 1600 1781 1854 2136 2003 2116 2129 2202 2033 2013 1978 1998 1809 1484 1438 1592 2125 2528 1361 1101 883 1125 1698 1359 1426 1459 1441 1428
28 120 13 349 557 593 1087 1152 925 998 1199 1343 1588 1457 1596 1810 1933 1966 1709 1591 1673 1969 1980 2172 2230 2196 2025 1668 1449 1536 1730 1956 1741 1425 1313 1015 1680 1769 1487 1503 1650 1602 1699
21 30 0 44 211 208 986 1259 1200 1190 893 900 1151 1237 1310 1642 1941 1913 1456 1717 1770 1961 1806 2122 2351 2218 2119 1949 1864 1620 1626 2028 1491 1543 1255 1237 1834 1560 1376 1462 1496 1488 1661
6 16 63 87 306 519 474 703 779 755 349 184 176 393 762 1414 1841 1855 2526 2092 1915 1833 1594 1514 1900 2409 2446 2336 2286 1854 1879 1948 1281 1090 841 1400 2046 1526 1432 1585 1760 1987 2144
11 9 103 409 450 186 206 216 321 303 284 159 213 743 1791 1868 1883 1639 2219 2184 1906 1820 1499 1213 1357 1624 1954 2681 3228 3131 2317 1627 1027 949 558 1232 1645 1782 2047 2303 2442 2523 2719
57 103 126 383 227 139 83 411 246 454 382 216 229 1006 2122 1548 1393 1106 1883 1796 1772 1572 1308 1501 1946 2113 1853 1317 1932 3235 2478 1433 1104 994 455 1089 1144 1293 1251 1830 2344 3100 2828
403 589 258 117 2 120 106 306 416 778 1028 792 856 1092 538 757 947 623 1393 1122 1382 1541 1068 1343 1295 1406 1349 1622 654 1466 1534 942 876 778 560 895 1064 1233 1220 1549 1997 2477 2946
208 879 852 268 55 181 88 215 231 516 582 448 1332 1723 1104 726 894 761 1020 1221 1309 1356 1386 1306 1316 1937 1835 2003 734 1531 692 676 794 832 735 1586 1439 854 660 1629 2188 2404 2577
388 428 497 387 297 113 9 1 4 198 644 1004 1641 1949 1181 636 752 603 1133 1338 1295 1527 1482 445 1596 1473 1558 1725 1685 1560 956 1227 1378 1108 1025 2215 2017 1768 1352 1838 1780 2136 2499
466 678 486 1123 457 251 139 48 52 199 524 699 620 835 921 1531 1851 1841 395 1506 1538 890 1027 2031 2928 1652 1710 1180 1187 2019 1494 1372 1489 1906 1588 1529 2376 2322 1880 1359 1558 1891 2491
294 500 649 828 950 480 323 241 302 567 366 665 1120 1453 1028 1156 631 1002 1181 2965 1335 2054 2655 2002 2083 1996 1274 827 1772 1470 1765 1169 1838 1610 2015 1674 1899 2557 2099 1546 1635 2301 2818
201 867 502 196 440 999 1290 1922 1729 243 847 1673 1370 1920 14 120 728 258 706 672 1979 2430 1906 2062 2124 1635 1185 1102 1471 1514 1607 1319 1388 2120 1956 1824 2104 1701 2224 2098 2212 3149 3018
577 1077 687 571 532 872 2066 2024 497 354 2020 873 990 1560 432 409 1327 482 212 308 2721 1300 1299 1119 1058 1999 1789 1254 875 1318 1093 1260 1735 1061 1474 1750 1983 2349 2000 2298 2640 2797 2373
929 1363 1139 1257 1183 2193 2500 2906 2134 1843 1247 2246 2241 1320 2842 2627 2509 489 25 1024 3317 1566 1944 384 342 1881 2247 2162 341 568 1042 1216 1180 1311 1195 1460 1770 2268 2194 1962 2469 1723 2454
692 1232 1614 1741 2151 1814 2074 2060 1044 2048 2333 2647 2210 2470 2921 2339 2529 3487 1960 2926 3555 2404 752 1647 1800 2346 2242 1680 1333 1359 1214 1159 253 310 478 1148 1327 1708 2529 2950 3140 1583 2065
787 1226 2062 2122 2368 2089 1734 2306 1937 2819 1749 2476 2466 3164 2295 2300 3022 3060 3455 3373 3643 3459 3051 3689 3671 1703 2224 2507 1813 2178 1209 239 233 43 324 963 1177 1249 2180 2739 2854 2492 2094
656 1354 1952 2334 2405 2024 2287 2602 2836 2969 1596 3087 2822 2539 2488 2710 2689 3184 2934 3079 3658 3423 2783 3174 4029 3052 1219 570 1383 2299 612 110 0 15 302 420 578 788 2394 2242 2806 2686 1783
392 953 1888 2414 2557 2186 2806 2141 2637 2090 1748 2126 2751 2821 2348 2988 2808 3112 2902 2743 3112 3525 2210 2821 2497 2678 1309 29 522 1448 1865 192 98 240 424 91 4 219 410 1635 2146 2661 2497
1114 661 1648 2421 2456 2666 2502 2777 2270 2098 2155 2315 2128 1773 2893 3507 3044 2405 3233 3403 3418 3460 3421 3147 3582 3819 2902 2111 648 397 280 1099 2479 402 387 145 110 268 108 183 1358 2137 2198
505 745 1842 2665 2419 2658 2519 2102 2486 2335 2476 2176 2811 2345 2205 2325 2483 3388 2856 3579 3598 3752 2775 2769 3608 3570 4558 3814 3328 2870 1818 1807 606 220 91 280 259 228 252 345 428 2503 2182

GFSSE_con_mucape_165.txt.gz
CAPE
723 1016 1693 1292 1469 1588 1602 1232 1098 1143 1756 1884 1783 1483 1235 1186 1341 2148 2097 2226 2003 2193 2148 2151 2015 2202 2040 2047 2211 2254 2113 2265 2367 2515 2553 2323 2110 2739 2696 2452 2310 2075 2391
774 941 1899 1378 1483 1349 2034 1660 1718 2276 1603 1429 1452 1519 1208 1038 1053 1591 2175 2160 1942 2215 1618 2151 2196 2188 2193 2117 2148 2212 2477 2453 3155 2700 2550 2645 2475 2398 2351 2335 2208 2250 2443
738 968 1278 1754 1571 1364 1326 1692 1025 1044 898 1571 1787 1654 1390 1231 619 1709 1853 2024 1669 1608 1542 2381 2078 1957 2114 2068 2057 2076 2043 2279 2734 3053 1621 1044 1131 1759 2252 2576 2443 2292 2177
579 710 1048 1752 1665 1125 949 1131 1315 1122 933 1756 1668 1650 1619 1517 1546 1748 1600 1566 1681 1929 2174 2050 2198 2233 2093 1846 1865 1862 1698 1540 1903 1941 999 1101 1348 1513 1823 1633 1484 1550 1850
435 639 890 1554 1362 1156 693 264 856 1419 1743 1931 1633 1487 1493 1304 1652 1628 1756 1829 1787 1916 1984 1791 1632 1474 1276 1023 987 1019 1449 1727 1855 1875 1203 1402 1729 1947 1956 1693 1597 1713 1726
327 750 1505 1377 1035 1109 872 831 1411 1693 1813 1540 1545 1531 1591 1535 1667 1579 1523 1718 2095 1919 2089 2155 1809 1322 1188 1203 1197 1303 1635 1903 2021 968 975 1281 867 1023 1116 1134 1171 1086 1007
281 642 838 1755 1263 929 666 1253 1457 1535 1566 1490 1697 1720 1738 1733 1779 1810 1847 2093 1941 1926 1830 1716 1663 1601 1649 1542 1391 1385 1624 2457 1566 618 518 683 1073 1833 1459 1459 1446 1449 1491
77 189 194 773 957 931 953 1064 1290 1334 1392 1400 1353 1693 1798 1867 1855 1714 1642 1852 2132 1986 1903 2000 1851 1625 1489 1445 1248 1284 1683 1995 756 515 571 842 1808 1959 1498 1572 1506 1552 1727
0 0 0 152 575 1052 1212 1158 1112 1209 1247 1317 1492 1714 1909 2043 1961 1510 1671 1725 1866 1748 1929 2037 1918 1785 1636 1625 1437 1985 1955 1719 1183 687 701 1024 2057 1632 1468 1441 1365 1419 1510
0 0 0 6 277 627 756 1262 1032 929 1042 1036 1214 1383 1480 1941 1929 1442 2315 2384 1870 1736 1686 2043 2165 2116 2155 2188 2290 2605 2223 1675 1028 976 1012 1335 2100 1621 1491 1570 1754 1938 2135
1 38 123 91 36 49 300 637 452 417 141 122 521 706 1732 1318 1450 1496 1768 2075 1973 1864 1476 1318 1649 2051 2346 2593 3366 3319 2840 1401 700 381 554 1896 2235 1941 2048 2235 2385 2405 2605
0 53 41 15 2 4 38 79 95 166 77 31 54 677 975 1149 1138 1259 1616 2012 2040 1978 1716 1478 1529 1636 1682 1434 1126 1480 2138 2114 577 314 219 1767 2304 2007 1724 2128 2043 2860 2821
0 51 138 0 21 2 14 96 141 151 82 35 104 368 625 848 1071 1236 1400 1642 1596 1784 1111 1304 1428 1604 881 424 386 559 882 1450 529 311 452 1689 2247 1321 1714 1680 1918 2250 2558
66 0 0 0 26 36 34 71 73 180 169 175 202 167 304 589 907 546 657 829 851 719 717 637 553 797 940 118 640 326 425 806 575 547 601 1705 2268 2109 1358 1759 2188 2365 2582
116 74 21 0 16 0 2 0 17 92 198 152 194 641 314 433 305 359 377 560 717 668 659 811 754 858 1147 801 621 928 787 776 709 821 650 2064 2032 1858 1800 2070 2093 2394 2824
224 163 75 42 0 0 0 0 0 0 58 288 464 465 399 565 564 417 376 449 717 663 752 771 648 634 915 656 672 945 647 591 908 971 927 1240 2392 2257 2203 1947 2050 2775 3164
247 256 174 80 77 0 0 6 0 26 76 315 434 690 300 251 297 364 253 389 736 956 1045 830 832 940 961 554 630 738 814 736 785 946 1231 1150 1588 2422 2402 2320 2413 2989 3523
155 306 215 202 243 156 6 16 83 95 140 378 371 312 45 174 134 2 75 325 535 575 973 758 750 879 918 310 330 504 689 517 501 878 956 1223 1106 1377 2309 2343 2598 3330 3238
181 266 212 301 260 167 127 233 252 241 212 508 339 207 146 86 97 92 13 211 536 527 732 555 624 745 712 344 349 436 468 486 423 662 453 732 1147 1282 1144 2204 2834 2978 2603
164 82 184 281 261 114 228 407 164 130 147 420 276 37 53 146 32 0 0 79 549 906 646 406 226 695 977 574 253 251 269 332 270 339 354 445 748 1697 1318 1424 2218 1949 2494
288 199 230 376 214 968 1015 943 344 388 1047 972 837 573 765 334 139 0 0 14 396 930 718 700 983 1594 1641 1399 167 534 471 191 123 125 146 265 694 1500 1590 1790 1411 1583 1901
437 515 554 355 774 524 960 780 785 915 901 903 578 221 1154 603 491 368 153 455 1356 1668 1306 1813 2182 1062 1221 773 526 544 201 122 71 0 0 148 377 711 1053 1487 1690 1300 1194
428 710 400 576 741 653 564 1171 1146 1292 896 1598 1633 1284 1175 954 996 942 615 1409 1855 1642 1021 1112 1731 1473 927 623 679 584 445 3 0 0 99 53 97 395 401 695 910 1192 1398
485 883 835 979 851 809 928 949 838 445 883 1368 1422 1102 1489 1277 1300 1375 1755 1574 1526 1644 751 765 1862 1208 960 287 153 265 491 120 79 5 38 45 9 0 3 116 61 673 1329
374 1185 1113 1371 1206 655 806 1299 1045 549 1039 1026 1513 1479 1408 1609 1488 1911 1473 1605 2034 1923 1787 1592 1717 2100 1894 861 374 7 23 8 150 183 118 58 86 70 0 11 46 717 1238
855 476 184 1007 1141 1030 950 1181 1286 814 645 1206 1404 1499 1669 1586 1735 1516 1667 1690 1929 2010 1893 1268 1945 2162 1973 1586 757 290 148 555 716 268 85 45 132 127 78 7 134 437 1120

GFSSE_con_mucape_168.txt.gz
CAPE
616 1068 1902 1841 1677 1425 1347 1193 1253 1523 1640 1507 1266 1158 1024 1213 1945 2110 2168 2203 2107 2099 2238 2314 2216 2186 2077 2198 2351 1902 1993 2113 2149 1947 1912 2097 2127 2138 2415 2440 2206 1960 2217
792 1058 2035 2014 1635 1508 1249 1071 1753 1628 1503 1285 1485 1200 1083 1097 1782 2127 2161 2065 2012 2208 2288 2219 2010 2156 2198 2379 2239 2180 2278 2375 2586 2740 2081 2038 1781 2078 2371 2393 2304 2151 2277
903 1268 1429 2094 1691 1407 1479 1770 1461 1124 1288 1428 1521 1254 1107 683 1324 2127 2176 2029 1792 1953 2146 2403 2132 2314 2226 2223 2253 1991 2190 2245 2517 2251 2147 1688 2054 2322 2268 2179 2219 2265 2352
975 1057 1232 2076 1809 1183 1141 1024 1096 913 1718 1680 1763 1570 1106 1031 1762 1904 1903 1718 1755 1767 2173 2083 2288 2387 2327 2247 2328 2207 2054 1985 2464 1216 612 657 954 1735 1937 2215 2241 2144 2100
769 977 1185 1675 1435 1105 1241 1389 1099 1434 1560 1696 1548 1632 1649 1612 1544 1555 1394 1781 2021 2193 2302 2231 2061 1723 1224 1186 1225 1204 1363 1561 1759 1589 1398 1487 1600 1918 1939 1729 1514 1362 1189
765 855 1554 1396 1328 722 513 1383 1549 1995 1766 1588 1571 1403 1252 1643 1697 1772 1742 1870 1856 1444 2092 1999 1400 1252 1206 1229 1452 1564 1837 2400 1319 1170 1480 1588 1321 1737 1384 1092 1222 1529 1539
837 1040 1151 1962 1278 825 784 1302 2031 1616 1783 1628 1725 1793 1781 1914 1561 1643 1785 2013 1995 1854 1726 1534 1536 1663 1699 1590 1584 1604 2217 2630 659 699 705 819 1196 2024 1610 1525 1461 1396 1328
688 923 1018 1433 1134 1151 1366 1554 1733 1543 1756 1868 1920 1957 1997 2010 1948 1939 2019 2054 2123 1699 1707 1739 1640 1660 1585 1429 1299 1671 2622 1681 631 443 621 953 1854 2188 1838 1804 1722 1770 1884
517 446 646 873 898 1110 1300 1500 1638 1607 1608 1534 1886 2039 2071 2107 1858 1848 1901 2006 1799 1753 1759 1753 1721 1655 1499 1594 2007 2669 1878 1560 650 507 772 1125 2231 1898 1763 1526 1490 1611 1718
18 51 469 578 652 912 983 1367 1484 1546 1572 1666 1850 1933 2287 2007 1737 1869 2483 2464 1709 1652 2033 1963 1976 2105 2446 2770 2924 2910 2226 1981 1280 759 779 1035 2258 1733 1692 1767 1830 1884 2078
0 2 51 338 526 725 929 985 1256 1512 1518 1511 1467 1693 1933 1647 1165 1501 1722 2153 1850 1725 1535 1678 1880 2101 2103 1651 1473 1700 2370 1707 1002 955 866 1807 2467 1892 2000 2160 2297 2379 2438
0 12 26 22 154 476 538 416 262 244 167 158 528 1059 1112 1299 1270 1299 1579 1968 1949 1895 1769 1573 1563 1727 1718 830 607 851 626 1105 1174 545 603 2373 2838 2370 2460 2692 2684 2712 2674
0 4 0 0 0 56 171 82 143 94 37 17 180 578 754 1024 1036 1412 1214 1707 1686 1791 1426 1243 1469 1493 823 289 258 561 775 1060 1005 225 574 2099 2777 2417 2068 2091 2202 2480 2483
0 0 0 0 0 4 78 116 132 99 110 120 225 307 611 729 958 974 710 869 844 761 603 644 549 633 424 23 376 313 703 893 795 327 363 1326 2720 2342 1852 1959 2190 2428 2471
0 0 0 0 2 3 56 73 60 111 169 159 145 223 255 461 693 408 308 268 492 474 488 447 631 695 808 594 636 818 618 677 646 511 501 987 2595 2864 2179 2225 2451 2514 2547
37 4 0 0 0 0 15 27 15 32 80 121 204 150 171 243 275 212 296 411 557 624 667 485 665 629 844 973 769 825 726 699 724 783 795 740 2599 2466 2663 2231 2292 2739 2597
117 50 0 0 0 0 0 0 0 0 0 66 195 164 141 130 201 305 286 300 598 677 899 806 572 841 720 859 589 731 692 574 604 788 694 661 1533 2729 2631 2518 2678 3215 3031
191 153 55 2 0 0 0 4 1 0 0 153 251 103 9 86 161 202 345 312 543 578 640 724 553 646 783 633 681 445 447 486 459 649 834 957 864 1426 2560 2510 2711 3117 2743
216 175 76 58 63 34 0 37 50 78 91 144 199 174 0 31 167 204 105 292 473 500 615 433 466 481 754 525 348 290 374 467 462 462 577 990 1088 1064 1360 2257 2999 3080 2524
242 184 93 130 149 102 94 130 132 207 218 203 323 130 5 20 53 1 86 219 549 728 774 302 349 1369 1251 469 287 306 224 272 303 347 458 860 1094 1121 908 1307 2387 2230 2649
234 245 168 177 216 130 116 202 368 403 191 265 201 3 8 2 1 7 15 328 406 481 671 672 886 1144 802 698 224 443 433 286 260 181 194 753 1396 1208 896 1152 1216 1715 2074
143 184 163 237 217 196 176 390 187 145 586 680 190 166 51 191 111 0 3 114 491 737 1072 1171 1672 1297 892 541 596 431 272 194 44 92 66 266 685 767 1167 1315 1173 982 1322
88 74 89 265 166 303 408 524 787 629 903 714 494 447 495 456 181 195 6 549 1272 1311 1008 1055 1347 1010 708 496 444 479 264 13 0 0 75 70 201 293 247 482 1021 944 806
103 159 148 96 329 537 567 457 762 505 764 614 679 526 907 762 573 603 391 1158 1495 1226 571 1164 1597 864 728 329 424 491 383 165 84 69 64 15 0 29 0 14 13 872 1165
215 355 529 188 380 308 224 393 647 676 397 876 893 1020 1089 1043 912 1042 1113 1625 1360 1560 1142 1379 1485 1616 1233 830 267 180 151 53 58 304 163 107 14 65 25 1 12 23 604
682 836 667 729 331 429 451 702 720 601 396 794 895 1024 791 1204 1133 1241 1341 1350 1387 1740 1426 1389 1300 1523 1757 1154 482 152 364 311 685 419 320 258 184 149 118 23 7 178 899

GFSSE_con_mucape_171.txt.gz
CAPE
428 942 1950 1824 1709 1723 1674 1555 1441 1436 1426 1298 1225 1355 1601 2074 2372 2273 2199 2125 2174 2161 2017 1954 1801 1649 1729 1669 1839 1812 1829 1554 1679 1798 1773 1789 1867 2139 2326 2333 2339 2035 2272
706 1071 1907 2062 1683 1634 1402 1366 1698 1913 1672 1587 1425 1235 1303 2017 2261 2339 2208 2283 2087 2209 2038 2000 2003 1879 1685 1743 1601 1766 1734 1816 1985 1908 1876 2039 1966 2328 2075 2149 2081 2067 2188
942 1181 1290 2276 1813 1601 1352 1693 1719 1531 1452 1687 1463 1351 1224 1738 2317 2198 2127 2008 2092 2105 2104 2168 1694 1703 1508 1296 1294 1635 1806 2042 2005 2119 1880 1545 1663 2162 2252 2227 2138 2128 2321
1170 1266 1436 2251 2010 1473 1757 1666 1348 1473 1662 1685 1527 1259 927 1533 1748 2170 2026 1827 1968 2281 2117 2047 1905 1899 1523 1513 1786 1721 1801 1670 1528 1757 1319 1608 1865 2081 2011 1936 2077 2184 2268
1081 1228 1482 1788 1664 1484 1275 1402 1274 1624 1882 1950 1740 1423 1562 1816 1842 1807 1813 1884 2172 2080 2162 2013 2009 1794 1887 1894 1684 1604 1763 1750 1638 850 932 957 1311 1476 1576 1689 1765 2068 2145
1029 1132 1569 1595 1398 1443 1638 1445 1546 1557 1809 1716 1712 1792 1683 1652 1426 1478 1863 2023 1991 2059 1911 1544 1283 1121 1158 1193 1348 1612 1641 1892 2050 1024 1181 1553 1585 1806 1751 1711 1710 1443 1266
828 1087 1357 1809 1417 1108 1609 1618 1694 1936 1763 1792 1547 1728 1950 1946 1998 1889 1948 1820 1800 2174 1833 1364 1362 1347 1429 1494 1481 1674 2009 1891 1020 1128 1213 1014 1222 1785 1246 1188 1277 1245 1263
918 1208 1363 1692 1147 921 1095 1757 1837 1802 1722 1852 1713 2102 2125 1731 1723 1965 2069 1846 1693 1643 1612 1658 1742 1621 1463 1171 1361 1993 2261 1500 729 541 640 976 1834 1936 1657 1558 1572 1611 1613
738 903 1161 1176 1059 1379 1426 1726 1677 1780 1758 1933 1959 2072 2161 1918 2100 2106 1977 2131 1702 1672 1644 1662 1576 1627 1693 1751 1818 2036 1853 1264 274 315 680 1086 2257 2107 1861 1833 1806 1850 1970
489 685 968 940 865 1045 1289 1729 1665 1760 1696 1946 1928 1991 2218 1896 1893 1864 2439 2002 1575 1692 1925 1941 2150 2075 2497 2461 2560 2536 2384 2009 1099 437 791 1103 2210 1851 1813 1603 1775 1764 1804
83 273 570 596 684 875 952 1237 1378 1626 1870 1722 1725 1915 2199 1438 1544 1631 1909 1782 1752 1687 1697 1756 1790 1895 2058 1633 1467 1737 2396 1689 1119 648 783 1078 2192 1908 1798 1883 2031 2140 2329
0 57 236 466 392 565 697 1024 1168 994 1011 1171 1461 1480 1510 1229 1380 1225 1691 1954 1914 1851 1757 1553 1614 1879 1885 626 441 736 507 798 1352 1146 896 1395 1995 2156 2196 2091 2420 2529 2424
0 16 33 168 242 196 224 286 537 545 204 519 890 940 1173 1115 1317 1473 1207 1794 1614 1820 1466 1041 1058 1287 1115 562 256 407 642 760 1056 489 367 607 2202 2401 2297 2221 2176 2317 2230
4 35 13 18 37 94 113 131 109 61 26 159 325 492 838 726 881 1012 795 735 706 634 435 541 469 523 618 417 607 365 475 762 1069 519 297 433 1306 2155 2116 2001 2117 2280 2079
0 6 0 3 0 42 121 130 94 99 97 161 226 275 405 516 839 756 338 228 262 488 530 547 530 707 873 787 550 598 510 520 639 587 495 722 990 1985 2226 1950 2282 2498 2453
0 0 0 0 0 41 99 83 56 81 125 213 247 207 281 464 381 241 277 316 430 470 495 676 705 596 722 769 845 752 680 661 685 622 541 547 938 2213 2220 2311 2350 2550 2511
0 0 0 0 0 0 18 13 8 20 89 98 197 186 188 196 273 290 305 301 413 460 613 617 557 823 844 749 842 689 563 540 671 913 766 717 791 1870 2182 2529 2869 3357 2832
38 0 0 0 0 0 0 0 0 0 56 119 217 357 189 179 198 201 256 316 412 451 610 609 500 374 571 622 610 549 387 481 573 789 895 884 711 1103 1939 2723 2769 2752 2872
59 34 0 0 0 0 0 0 0 0 6 57 210 289 61 103 130 180 268 243 332 404 587 418 404 1116 530 494 474 283 351 388 450 494 791 963 920 777 1252 1568 2475 2026 2531
118 104 40 0 0 0 0 3 11 72 129 174 196 255 243 14 117 192 132 180 434 586 474 366 553 904 797 222 209 286 326 292 250 321 717 889 964 820 908 1002 1575 1748 2010
174 143 86 16 64 49 1 50 103 201 314 319 271 263 223 10 32 55 49 252 470 481 622 632 1091 1070 554 563 178 256 235 213 193 194 751 964 1046 924 837 767 1512 1533 2101
177 175 131 71 104 64 63 137 203 334 380 280 276 222 34 27 3 4 29 288 257 455 994 943 1326 1147 775 470 470 496 221 177 42 3 226 870 1056 1106 1016 1046 1353 929 1403
141 193 166 109 129 144 27 88 294 154 516 667 476 224 145 182 160 88 0 151 664 959 811 1216 1263 863 680 516 473 424 277 142 31 0 0 145 306 325 567 1013 1176 965 938
124 189 197 142 157 183 112 149 480 423 529 749 668 314 317 182 421 142 7 565 1042 1167 774 719 1518 789 725 409 260 337 270 192 6 152 113 24 13 16 9 5 142 878 819
93 147 167 185 192 172 191 203 496 457 375 546 576 388 306 312 602 380 324 261 1231 1293 980 904 1317 729 833 698 213 139 178 115 55 427 232 113 126 43 40 71 0 55 952
53 134 153 136 153 182 168 294 346 301 369 491 556 529 501 409 689 787 695 731 1394 1218 1186 1204 1184 1380 1517 1078 423 91 139 293 436 394 429 346 269 244 153 152 70 0 54